FENGYUN 1C DEB, 36710

Orbit data source: Space-Track

FENGYUN 1C DEB, 36710 is space debris in SSO originally from a launch on Mon, 10 May 1999 UTC launched from the Taiyaun Space Center, China (TSC). Fengyun 1C debris stems from the Chinese weather satellite Fengyun-1C, which was intentionally destroyed by a Chinese anti-satellite missile in 2007. This event dramatically increased the amount of space debris, with thousands of trackable fragments posing hazards to satellites and human spaceflight. The Fengyun 1C debris cloud has become a focal point in discussions about space sustainability and the need for international regulations to prevent the creation of new debris.

Loading next visibility...
Identifier
36710, 1999-025EAG
Orbit
SSO
Country
Flag of CNCN / PRC
Related business
Manufacturer
Unknown
Mission
Spacecraft
Bus & Motor
Unknown
Mass
Unknown
Launch date (UTC)
1999-05-10 (27 years ago)
Launch vehicle
Unknown
Launch site
Taiyaun Space Center, China (TSC)
Object type
Payload
Rocket body
Debris
Shape & HBR
Unknown shape, 0.1 m
Radar Cross Section
Small (<0.1 m²)

Expand to show TLE details & history
Last TLE update: 1 week ago

TLE from 1 week ago
0 FENGYUN 1C DEB
1 36710U 99025EAG 26138.43440567  .00002616  00000-0  64774-3 0  9991
2 36710  98.3606 199.7255 0066196  64.6448 296.1582 14.51485600672258
Epoch: 2026-05-18T10:25Z
TLE epoch observation values (Epoch: 2026-05-18T10:25:32.649Z)
Latitude
-0.00008°
Longitude
167.21676°
Altitude
703.3 km
Speed
7.515 km/s
True Right ascension
13h 18m 54s
True Declination
0° 00' 00"
Sunlit
Object was in full shadow at epoch
Visualization orbit readout
Latitude
Unknown
Longitude
Unknown
Altitude
Unknown
Speed
Unknown
Apparent Right ascension
Unknown
Apparent Declination
Unknown
Sunlit
N/A
Visualization observer readout
Local Sidereal Time
15:33:26
Azimuth
Unknown
Elevation
Unknown
Doppler factor
Unknown
Orbital elements
Apogee altitude
764.873 km
Perigee altitude
670.927 km
Semi-major axis
7,096.037 km
Eccentricity
0.00662
Inclination
98.3606°
RAAN
199.7255°
Arg. of periapsis
64.6448°
True anomaly
295.47486°
Mean anomaly
296.1582°
Eccentric anomaly
295.81678°
Mean motion
3.63094 °/min
Orbital period
99.15 mins
BSTAR
0.00064774
Loading maneuver chart data...
Computing Atmospheric mass density...

Documentation

Showing up to 5 results
|